Location: Broekland
(52.3610°N, 6.2005°E)
Time: 07:33:54
(UTC+00:00)

Cosmos 1975 - Pass Details

Date: 19 May 2025
Orbit: 487 x 505 km, 82.5° (Epoch: 22 June)

Event Time Altitude Azimuth Distance (km) Brightness Sun altitude
Rises 22:44:43 0° 345° (NNW) 2,578 8.0 -16.9°
Reaches altitude 10° 22:46:52 10° 341° (NNW) 1,690 6.6 -17.0°
Maximum altitude 22:50:28 52° 264° (W) 617 3.0 -17.1°
Enters shadow 22:51:41 35° 209° (SSW) 813 3.3 -17.1°
